Dewpoint
20 16 12 10 13 23 27 20 19 22 24 25 24 25 25 27 27 26 25 25 25 25 25 26 39 48 51 53 53 53 52 52 50 48 46 45 45 42 40 39 40 39 39 38
20 15 15 16 12 10 20 21 25 25 24 24 23 23 24 26 26 27 26 26 26 24 22 23 24 41 48 50 52 52 52 52 50 49 49 49 47 41 41 39 38 38 38 38
16 14 15 16 16 13 11 12 19 23 24 23 23 22 24 26 26 27 27 27 27 26 25 24 24 25 39 47 50 51 51 51 50 49 47 39 38 37 37 37 37 37 37 37
21 19 17 17 17 15 13 11 8 17 20 20 24 16 20 22 23 25 26 27 27 27 26 26 26 26 29 39 47 50 51 50 49 49 45 43 43 42 39 39 37 37 36 36
14 17 18 19 17 17 14 15 12 19 23 24 23 21 18 19 21 22 23 24 25 26 27 27 27 27 27 33 41 48 50 50 48 48 46 45 45 44 40 38 36 36 36 36
21 20 19 18 18 19 19 18 18 18 20 12 18 22 14 18 21 20 22 24 26 27 27 29 29 30 29 31 37 44 48 49 47 46 46 45 45 41 37 36 36 35 35 35
18 20 23 21 22 23 22 17 0 4 9 6 10 18 21 18 17 19 19 20 23 26 28 29 30 30 30 29 33 40 46 47 46 45 45 44 44 39 38 36 36 35 35 34
13 8 20 27 24 19 19 16 1 -4 6 7 10 10 12 17 21 24 24 26 25 27 28 30 31 32 31 31 32 37 42 45 45 44 43 43 43 39 38 37 36 35 35 36
14 10 17 20 24 27 21 16 18 14 3 15 16 19 19 22 23 23 25 25 25 28 29 29 30 31 32 31 33 37 41 43 43 43 43 42 42 39 38 37 37 36 35 35
14 11 15 26 28 28 24 21 14 17 6 8 11 14 14 15 19 21 20 23 24 25 26 27 29 30 31 31 33 36 40 41 41 41 42 41 40 39 38 36 36 35 35 34
17 15 13 19 21 21 21 20 16 20 17 3 5 15 16 15 12 13 19 24 24 25 25 25 26 27 25 27 28 30 32 34 36 39 39 38 37 37 35 35 35 34 33 33
13 20 12 11 20 28 27 24 21 7 7 11 10 14 19 19 18 24 25 24 24 25 23 25 26 25 28 28 27 26 26 31 33 34 34 35 34 34 34 34 34 33 32 32
18 11 5 4 14 23 20 23 26 23 22 16 6 6 19 19 16 23 24 26 25 26 23 24 24 24 25 25 27 25 24 30 28 32 32 32 33 33 32 32 32 32 31 30
22 11 9 7 12 18 15 15 19 24 13 13 8 12 14 15 15 17 18 21 25 21 19 19 24 23 23 23 24 24 25 24 25 28 30 30 31 32 31 31 30 30 30 29
18 8 11 14 18 19 16 15 16 14 15 14 13 11 14 16 15 15 16 17 20 22 22 17 20 22 22 22 21 23 24 24 23 24 26 27 28 29 28 28 28 29 29 29
19 10 13 13 19 18 14 15 15 15 15 14 16 14 20 18 9 15 14 14 16 16 19 20 15 18 21 22 22 20 19 22 25 23 22 23 25 26 26 26 27 27 27 27
18 10 8 7 17 17 9 13 14 14 14 15 9 15 18 15 15 15 14 14 14 15 16 19 20 20 21 24 24 22 21 23 25 24 24 25 25 25 23 25 25 25 25 26
13 10 9 8 13 3 16 20 18 14 14 15 16 15 16 17 16 16 19 16 15 16 17 19 22 23 24 24 23 23 25 24 24 24 24 24 24 23 23 24 24 24 24 24
21 15 5 8 6 14 16 17 16 14 11 15 14 15 14 17 21 19 21 19 18 18 19 20 22 24 23 23 24 23 23 23 23 23 23 23 23 22 22 22 22 22 22 23
22 19 14 8 2 -2 12 17 21 18 5 16 14 13 13 15 11 15 19 19 19 19 20 20 21 21 21 22 24 23 22 22 22 22 22 22 23 22 22 22 22 22 23 22
13 12 9 7 3 3 15 17 17 4 6 16 14 11 14 11 16 17 18 17 18 19 19 20 20 20 20 22 23 21 21 20 21 21 21 21 21 21 21 21 21 21 21 21
13 10 10 10 -1 -1 16 14 9 14 15 13 11 12 12 12 11 13 14 15 16 16 17 19 18 19 21 22 22 20 18 19 20 20 19 18 19 21 20 20 19 19 20 19
12 14 13 14 13 18 17 14 16 16 13 14 16 17 16 15 13 15 16 16 17 18 17 17 17 17 18 20 21 18 17 18 17 17 16 16 18 19 19 18 17 17 18 18
16 17 17 16 16 15 15 18 15 16 16 16 17 15 14 13 13 13 14 14 14 15 17 17 15 15 15 16 17 17 17 16 17 15 14 14 15 15 16 16 16 16 16 16
13 14 12 15 15 17 17 14 14 16 16 15 14 13 12 11 10 12 13 13 13 13 13 14 14 15 14 14 14 15 15 15 14 14 13 15 14 15 14 15 15 15 15 16
14 10 9 7 15 14 14 14 13 13 13 14 13 12 11 9 8 9 11 11 10 10 9 9 9 9 10 10 9 10 12 13 14 14 13 13 13 13 12 12 12 15 16 17
Lifted_Index
7 8 8 7 7 6 6 5 5 5 5 5 5 6 6 6 6 6 6 6 5 5 4 4 4 4 4 3 2 2 2 1 1 1 2 3 4 4 4 5 6 8 10 11
6 7 7 7 7 6 6 5 5 5 5 5 5 6 6 6 6 6 6 6 6 6 5 4 4 4 4 4 3 3 2 2 1 1 2 3 3 4 5 6 7 8 9 11
4 5 6 6 6 6 6 6 5 4 4 4 5 5 5 6 5 5 6 6 6 6 5 5 4 4 4 4 4 3 3 3 2 1 1 2 3 4 5 6 7 8 9 10
3 4 4 4 4 4 5 5 5 4 3 3 3 4 5 6 6 6 6 6 6 7 6 5 5 4 4 4 4 4 4 3 3 2 2 2 2 3 4 5 6 7 8 9
2 2 3 3 3 3 4 4 4 3 2 2 2 3 4 6 6 6 6 6 7 7 7 7 6 5 5 4 4 5 5 4 4 3 3 3 2 2 3 4 5 6 7 8
1 1 2 2 2 2 2 3 3 3 2 1 2 2 4 5 6 6 7 7 7 7 7 7 6 6 5 4 4 4 5 5 5 4 4 4 3 2 2 3 4 5 6 7
1 1 1 1 1 1 2 2 2 1 1 1 2 2 3 5 6 6 6 6 6 7 7 7 6 6 5 4 4 4 4 4 5 5 4 4 3 2 2 3 4 5 5 6
1 1 1 1 1 2 1 1 1 0 0 1 2 3 4 5 5 5 5 5 6 6 6 6 6 6 5 5 5 5 4 4 4 4 5 5 4 3 2 2 3 4 4 5
2 2 2 2 2 2 2 1 1 0 -0 0 1 2 3 4 4 4 4 4 4 5 5 5 6 6 6 5 6 6 5 5 4 4 5 5 5 4 3 3 3 4 4 4
2 2 2 2 2 2 2 1 1 0 -0 -0 0 0 1 2 2 2 2 3 3 3 4 4 5 5 5 5 5 5 5 5 5 5 5 5 5 5 5 4 4 4 4 4
2 2 2 2 2 2 2 1 1 0 0 0 0 0 1 1 1 1 1 2 2 2 3 4 4 5 5 5 5 5 5 5 5 5 5 5 6 6 6 5 5 5 5 5
2 2 2 2 2 2 2 1 1 1 1 0 0 1 1 2 1 1 1 1 2 2 2 3 3 3 4 4 4 4 4 5 5 6 6 6 6 6 7 6 5 5 5 6
3 2 2 1 2 2 2 1 1 1 1 0 0 1 1 2 2 1 1 1 1 1 1 1 2 2 2 3 3 3 4 5 5 6 6 6 7 7 7 6 6 6 7 7
3 3 2 2 2 3 2 1 1 1 1 1 1 1 1 1 1 1 1 1 1 1 1 1 1 1 2 2 3 3 4 5 6 6 6 6 7 7 7 6 6 7 8 9
3 3 3 2 2 2 2 2 1 1 1 1 1 1 2 2 2 1 1 1 1 1 1 2 2 2 3 3 3 4 4 5 6 6 6 7 7 7 7 7 7 8 9 10
3 3 3 2 2 2 2 2 2 2 1 1 1 2 3 3 2 2 2 2 2 2 2 2 3 3 4 4 5 5 5 6 7 7 7 7 8 8 7 8 8 9 10 11
3 3 2 2 1 2 2 3 3 3 3 3 3 3 4 4 3 3 3 3 3 3 3 3 4 5 5 6 6 6 6 7 7 8 8 8 8 8 9 9 10 10 11 11
2 2 2 1 1 1 3 4 4 4 4 4 4 4 4 4 4 5 5 5 4 4 4 4 5 6 6 7 7 7 7 8 8 8 9 9 9 9 10 10 11 11 12 12
2 2 2 1 1 1 3 4 4 4 4 5 5 5 5 5 5 5 6 6 6 6 6 6 7 7 8 8 8 8 9 9 9 9 9 10 10 10 10 11 11 12 12 12
2 2 1 1 1 2 3 4 4 4 4 5 5 5 5 5 5 5 6 7 7 7 8 8 8 8 9 9 9 9 9 9 9 10 10 11 11 11 11 11 11 12 12 12
2 2 1 1 1 2 3 4 4 4 4 6 6 6 6 6 6 7 7 8 8 8 8 9 9 9 10 11 11 10 10 10 11 11 11 12 12 12 12 12 11 12 12 12
1 2 2 2 2 3 4 5 5 5 6 7 7 7 7 7 7 8 8 8 8 8 9 9 9 10 11 11 11 11 11 11 12 12 12 12 12 12 12 12 12 12 12 12
2 2 2 2 2 3 4 5 6 6 7 7 7 7 7 7 8 8 8 8 8 9 9 9 10 10 11 11 11 11 11 12 12 12 12 12 13 13 13 13 12 12 12 12
2 2 2 3 3 4 5 6 6 7 7 7 7 7 7 7 8 8 8 8 9 9 10 10 10 10 10 11 12 12 12 13 12 12 12 13 13 13 13 13 13 13 13 13
2 2 2 3 4 4 5 6 6 7 7 7 7 7 7 7 7 8 8 8 9 10 10 11 11 11 11 11 12 13 13 13 12 12 13 13 13 14 14 14 14 14 14 14
2 2 2 3 4 4 5 6 6 6 6 7 7 7 7 7 7 8 8 9 9 10 11 12 12 12 11 11 12 13 13 13 13 12 13 13 13 14 14 14 15 15 15 16